Terminal Aerodrome Forecast
Issued by NWS Twin Cities, MN

Home | Current Version | Previous Version | Text Only | Print | Product List | Glossary Off
Versions: 1 2 3 4 5 6 7 8 9 10 11 12 13 14 15 16 17

000
FTUS43 KMPX 191400 AAA
TAFEAU
TAF AMD
KEAU 191448Z 1915/2012 19005KT P6SM SCT200
     FM191900 21010KT P6SM FEW200
     FM200000 25006KT P6SM SKC
     FM201000 32004KT P6SM SKC=

USA.gov is the U.S. government's official web portal to all federal, state and local government web resources and services.